Darstellungsparameter: Aktuell verwendete Einstellungen:
Skalierung der Graphiken ... ?
xyx+y,   Skalierungsfaktor:      Skalierung: Modus: x, Faktor: 1
Darstellungszeitraum ... ?
Vom - - bis: - -   Zeitraum: 28.04.2019 - 29.04.2019
Min/Max/Avg-Anzeige ... ?
Zeige MMA aktuell
Zeige MMA Monat
Zeige MMA alles
Zeige --A aktuell
Zeige --A Monat
Zeige --A alles
Keine MMA-Anzeige
MMA:
Average (ber die Originaldaten)
MMA-Basis: 28.04.2019 - 29.04.2019
Quicknavigation für Darstellung... ?
Tage:      1T, 2T, 3T, 5T -1T -2T -3T -5T +1T +2T +3T +5T
Wochen: 1W, 2W, 3W -1W -2W -3W +1W +2W +3W
Monate: 1M, 3M, 6M -1M -3M -6M +1M +3M +6M
Jahre:    1J, 3J, 5J, 10J -1J -3J -5J -10J +1J +3J +5J +10J
Nutze für die Darstellung ... ?
Originaldaten oder Mittelwerte auf ...
Stundenbasis Tagesbasis Wochenbasis
Monatsbasis Jahresbasis      Datenbasis: Original-Daten
Darstellen als:
Statistik (Auto) Statistik J:M      Darstellung:
Zur Graphik,    zurück zur Übersicht aller Sensoren.
 
Tabellarische Datenbersicht: ?
 
Sensor: Nr:Datum:Temp:Abs-Feuchte:Windchill:Wind:
Aussen-T/F 1 28-04-2019 00:00:00 6.8 C 7.19 g/m*3 6.8 C 1.6 km/h
2 28-04-2019 00:05:00 6.8 C 7.19 g/m*3 6.8 C 3.2 km/h
3 28-04-2019 00:10:00 6.8 C 7.19 g/m*3 6.8 C 3.2 km/h
4 28-04-2019 00:15:00 6.9 C 7.24 g/m*3 6.9 C 3.2 km/h
5 28-04-2019 00:20:00 6.8 C 7.19 g/m*3 4.87 C 9.7 km/h
6 28-04-2019 00:25:00 6.9 C 7.24 g/m*3 6.9 C 1.6 km/h
7 28-04-2019 00:30:00 6.9 C 7.24 g/m*3 6.9 C 0 km/h
8 28-04-2019 00:35:00 6.9 C 7.24 g/m*3 6.9 C 4.8 km/h
9 28-04-2019 00:40:00 6.9 C 7.24 g/m*3 6.9 C 3.2 km/h
10 28-04-2019 00:45:00 6.9 C 7.16 g/m*3 4.99 C 9.7 km/h
11 28-04-2019 00:50:00 6.9 C 7.16 g/m*3 6.9 C 4.8 km/h
12 28-04-2019 00:55:00 6.9 C 7.16 g/m*3 6.9 C 4.8 km/h
13 28-04-2019 01:00:00 6.9 C 7.16 g/m*3 6.9 C 3.2 km/h
14 28-04-2019 01:05:00 6.9 C 7.16 g/m*3 5.79 C 6.4 km/h
15 28-04-2019 01:10:00 6.9 C 7.16 g/m*3 5.79 C 6.4 km/h
16 28-04-2019 01:15:00 6.9 C 7.08 g/m*3 6.9 C 1.6 km/h
17 28-04-2019 01:20:00 6.9 C 7.16 g/m*3 6.9 C 1.6 km/h
18 28-04-2019 01:25:00 6.9 C 7.08 g/m*3 4.41 C 12.9 km/h
19 28-04-2019 01:30:00 6.9 C 7.08 g/m*3 4.68 C 11.3 km/h
20 28-04-2019 01:35:00 6.9 C 7.08 g/m*3 4.99 C 9.7 km/h
21 28-04-2019 01:40:00 6.9 C 7.08 g/m*3 5.79 C 6.4 km/h
22 28-04-2019 01:45:00 6.8 C 7.04 g/m*3 6.8 C 4.8 km/h
23 28-04-2019 01:50:00 6.8 C 7.04 g/m*3 6.8 C 1.6 km/h
24 28-04-2019 01:55:00 6.8 C 6.96 g/m*3 5.67 C 6.4 km/h
25 28-04-2019 02:00:00 6.8 C 6.96 g/m*3 6.8 C 3.2 km/h
Sensor: Nr:Datum:Temp:Abs-Feuchte:Windchill:Wind:
Aussen-T/F 26 28-04-2019 02:05:00 6.7 C 6.91 g/m*3 4.17 C 12.9 km/h
27 28-04-2019 02:10:00 6.7 C 6.91 g/m*3 3.69 C 16.1 km/h
28 28-04-2019 02:15:00 6.6 C 6.87 g/m*3 3.57 C 16.1 km/h
29 28-04-2019 02:20:00 6.6 C 6.87 g/m*3 4.32 C 11.3 km/h
30 28-04-2019 02:25:00 6.5 C 6.82 g/m*3 6.5 C 1.6 km/h
31 28-04-2019 02:30:00 6.4 C 6.78 g/m*3 6.4 C 1.6 km/h
32 28-04-2019 02:35:00 6.3 C 6.74 g/m*3 6.3 C 1.6 km/h
33 28-04-2019 02:40:00 6.3 C 6.74 g/m*3 6.3 C 0 km/h
34 28-04-2019 02:45:00 6.2 C 6.69 g/m*3 6.2 C 1.6 km/h
35 28-04-2019 02:50:00 6.1 C 6.65 g/m*3 6.1 C 0 km/h
36 28-04-2019 02:55:00 6 C 6.6 g/m*3 6 C 3.2 km/h
37 28-04-2019 03:00:00 6 C 6.6 g/m*3 4.75 C 6.4 km/h
38 28-04-2019 03:05:00 6 C 6.6 g/m*3 6 C 4.8 km/h
39 28-04-2019 03:10:00 6.1 C 6.65 g/m*3 4.4 C 8.1 km/h
40 28-04-2019 03:15:00 6.1 C 6.65 g/m*3 6.1 C 4.8 km/h
41 28-04-2019 03:20:00 6.2 C 6.69 g/m*3 6.2 C 4.8 km/h
42 28-04-2019 03:25:00 6.2 C 6.62 g/m*3 6.2 C 3.2 km/h
43 28-04-2019 03:30:00 6.2 C 6.62 g/m*3 4.98 C 6.4 km/h
44 28-04-2019 03:35:00 6.3 C 6.66 g/m*3 6.3 C 3.2 km/h
45 28-04-2019 03:40:00 6.3 C 6.66 g/m*3 4.64 C 8.1 km/h
46 28-04-2019 03:45:00 6.3 C 6.66 g/m*3 4.64 C 8.1 km/h
47 28-04-2019 03:50:00 6.3 C 6.59 g/m*3 4.64 C 8.1 km/h
48 28-04-2019 03:55:00 6.3 C 6.59 g/m*3 4.27 C 9.7 km/h
49 28-04-2019 04:00:00 6.4 C 6.63 g/m*3 3.55 C 14.5 km/h
50 28-04-2019 04:05:00 6.4 C 6.63 g/m*3 4.39 C 9.7 km/h
Sensor: Nr:Datum:Temp:Abs-Feuchte:Windchill:Wind:
Aussen-T/F 51 28-04-2019 04:10:00 6.4 C 6.56 g/m*3 5.21 C 6.4 km/h
52 28-04-2019 04:15:00 6.4 C 6.56 g/m*3 3.8 C 12.9 km/h
53 28-04-2019 04:20:00 6.4 C 6.56 g/m*3 3.8 C 12.9 km/h
54 28-04-2019 04:25:00 6.5 C 6.6 g/m*3 5.33 C 6.4 km/h
55 28-04-2019 04:30:00 6.5 C 6.6 g/m*3 4.51 C 9.7 km/h
56 28-04-2019 04:35:00 6.4 C 6.56 g/m*3 4.39 C 9.7 km/h
57 28-04-2019 04:40:00 6.4 C 6.56 g/m*3 4.39 C 9.7 km/h
58 28-04-2019 04:45:00 6.4 C 6.56 g/m*3 5.21 C 6.4 km/h
59 28-04-2019 04:50:00 6.4 C 6.56 g/m*3 3.55 C 14.5 km/h
60 28-04-2019 04:55:00 6.4 C 6.56 g/m*3 3.8 C 12.9 km/h
61 28-04-2019 05:00:00 6.4 C 6.56 g/m*3 4.39 C 9.7 km/h
62 28-04-2019 05:05:00 6.4 C 6.56 g/m*3 3.55 C 14.5 km/h
63 28-04-2019 05:10:00 6.3 C 6.51 g/m*3 2.79 C 19.3 km/h
64 28-04-2019 05:15:00 6.3 C 6.51 g/m*3 6.3 C 4.8 km/h
65 28-04-2019 05:20:00 6.3 C 6.59 g/m*3 6.3 C 4.8 km/h
66 28-04-2019 05:25:00 6.3 C 6.59 g/m*3 4.27 C 9.7 km/h
67 28-04-2019 05:30:00 6.2 C 6.55 g/m*3 4.15 C 9.7 km/h
68 28-04-2019 05:35:00 6.2 C 6.55 g/m*3 4.98 C 6.4 km/h
69 28-04-2019 05:40:00 6.2 C 6.55 g/m*3 3.84 C 11.3 km/h
70 28-04-2019 05:45:00 6.2 C 6.55 g/m*3 4.15 C 9.7 km/h
71 28-04-2019 05:50:00 6.2 C 6.55 g/m*3 4.15 C 9.7 km/h
72 28-04-2019 05:55:00 6.2 C 6.55 g/m*3 3.56 C 12.9 km/h
73 28-04-2019 06:00:00 6.2 C 6.47 g/m*3 3.84 C 11.3 km/h
74 28-04-2019 06:05:00 6.2 C 6.47 g/m*3 4.52 C 8.1 km/h
75 28-04-2019 06:10:00 6.2 C 6.55 g/m*3 3.84 C 11.3 km/h
Sensor: Nr:Datum:Temp:Abs-Feuchte:Windchill:Wind:
Aussen-T/F 76 28-04-2019 06:15:00 6.2 C 6.55 g/m*3 4.15 C 9.7 km/h
77 28-04-2019 06:20:00 6.2 C 6.55 g/m*3 3.84 C 11.3 km/h
78 28-04-2019 06:25:00 6.2 C 6.55 g/m*3 3.3 C 14.5 km/h
79 28-04-2019 06:30:00 6.2 C 6.55 g/m*3 4.98 C 6.4 km/h
80 28-04-2019 06:35:00 6.2 C 6.55 g/m*3 4.98 C 6.4 km/h
81 28-04-2019 06:40:00 6.2 C 6.55 g/m*3 4.52 C 8.1 km/h
82 28-04-2019 06:45:00 6.2 C 6.55 g/m*3 6.2 C 1.6 km/h
83 28-04-2019 06:50:00 6.2 C 6.55 g/m*3 6.2 C 0 km/h
84 28-04-2019 06:55:00 6.2 C 6.55 g/m*3 6.2 C 0 km/h
85 28-04-2019 07:00:00 6.3 C 6.59 g/m*3 6.3 C 3.2 km/h
86 28-04-2019 07:05:00 6.3 C 6.66 g/m*3 6.3 C 1.6 km/h
87 28-04-2019 07:10:00 6.4 C 6.63 g/m*3 5.21 C 6.4 km/h
88 28-04-2019 07:15:00 6.5 C 6.67 g/m*3 4.2 C 11.3 km/h
89 28-04-2019 07:20:00 6.6 C 6.72 g/m*3 4.32 C 11.3 km/h
90 28-04-2019 07:25:00 6.7 C 6.69 g/m*3 5.11 C 8.1 km/h
91 28-04-2019 07:30:00 6.8 C 6.73 g/m*3 5.22 C 8.1 km/h
92 28-04-2019 07:35:00 7 C 6.82 g/m*3 7 C 4.8 km/h
93 28-04-2019 07:40:00 7.1 C 6.86 g/m*3 5.23 C 9.7 km/h
94 28-04-2019 07:45:00 7.3 C 6.87 g/m*3 5.81 C 8.1 km/h
95 28-04-2019 07:50:00 7.3 C 6.87 g/m*3 6.25 C 6.4 km/h
96 28-04-2019 07:55:00 7.4 C 6.92 g/m*3 5.93 C 8.1 km/h
97 28-04-2019 08:00:00 7.5 C 6.96 g/m*3 6.48 C 6.4 km/h
98 28-04-2019 08:05:00 7.5 C 6.88 g/m*3 6.05 C 8.1 km/h
99 28-04-2019 08:10:00 7.5 C 6.88 g/m*3 7.5 C 4.8 km/h
100 28-04-2019 08:15:00 7.6 C 6.93 g/m*3 6.6 C 6.4 km/h
Sensor: Nr:Datum:Temp:Abs-Feuchte:Windchill:Wind:
Aussen-T/F 101 28-04-2019 08:20:00 7.6 C 6.93 g/m*3 5.53 C 11.3 km/h
102 28-04-2019 08:25:00 7.6 C 6.93 g/m*3 6.16 C 8.1 km/h
103 28-04-2019 08:30:00 7.6 C 6.93 g/m*3 5.82 C 9.7 km/h
104 28-04-2019 08:35:00 7.6 C 6.93 g/m*3 6.16 C 8.1 km/h
105 28-04-2019 08:40:00 7.6 C 6.93 g/m*3 6.16 C 8.1 km/h
106 28-04-2019 08:45:00 7.6 C 6.93 g/m*3 6.6 C 6.4 km/h
107 28-04-2019 08:50:00 7.6 C 6.93 g/m*3 6.16 C 8.1 km/h
108 28-04-2019 08:55:00 7.6 C 6.93 g/m*3 6.6 C 6.4 km/h
109 28-04-2019 09:00:00 7.7 C 6.97 g/m*3 7.7 C 4.8 km/h
110 28-04-2019 09:05:00 7.7 C 6.97 g/m*3 6.28 C 8.1 km/h
111 28-04-2019 09:10:00 7.7 C 6.97 g/m*3 7.7 C 1.6 km/h
112 28-04-2019 09:15:00 7.8 C 7.02 g/m*3 7.8 C 4.8 km/h
113 28-04-2019 09:20:00 7.8 C 7.02 g/m*3 7.8 C 1.6 km/h
114 28-04-2019 09:25:00 7.9 C 7.15 g/m*3 7.9 C 3.2 km/h
115 28-04-2019 09:30:00 8 C 7.19 g/m*3 6.01 C 11.3 km/h
116 28-04-2019 09:35:00 8 C 7.19 g/m*3 8 C 3.2 km/h
117 28-04-2019 09:40:00 8 C 7.19 g/m*3 8 C 3.2 km/h
118 28-04-2019 09:45:00 8.1 C 7.24 g/m*3 8.1 C 3.2 km/h
119 28-04-2019 09:50:00 8.2 C 7.29 g/m*3 8.2 C 3.2 km/h
120 28-04-2019 09:55:00 8.3 C 7.33 g/m*3 8.3 C 3.2 km/h
121 28-04-2019 10:00:00 8.3 C 7.33 g/m*3 8.3 C 3.2 km/h
122 28-04-2019 10:05:00 8.4 C 7.21 g/m*3 8.4 C 4.8 km/h
123 28-04-2019 10:10:00 8.6 C 7.3 g/m*3 8.6 C 3.2 km/h
124 28-04-2019 10:15:00 8.7 C 7.35 g/m*3 7.87 C 6.4 km/h
125 28-04-2019 10:20:00 8.8 C 7.31 g/m*3 7.98 C 6.4 km/h
Sensor: Nr:Datum:Temp:Abs-Feuchte:Windchill:Wind:
Aussen-T/F 126 28-04-2019 10:25:00 8.9 C 7.27 g/m*3 8.1 C 6.4 km/h
127 28-04-2019 10:30:00 9 C 7.32 g/m*3 8.21 C 6.4 km/h
128 28-04-2019 10:35:00 9.1 C 7.28 g/m*3 9.1 C 4.8 km/h
129 28-04-2019 10:40:00 9.2 C 7.32 g/m*3 8.45 C 6.4 km/h
130 28-04-2019 10:45:00 9.2 C 7.14 g/m*3 8.45 C 6.4 km/h
131 28-04-2019 10:50:00 9.3 C 7.19 g/m*3 7.58 C 11.3 km/h
132 28-04-2019 10:55:00 9.4 C 7.24 g/m*3 8.28 C 8.1 km/h
133 28-04-2019 11:00:00 9.5 C 7.1 g/m*3 8.09 C 9.7 km/h
134 28-04-2019 11:05:00 9.7 C 7.19 g/m*3 8.33 C 9.7 km/h
135 28-04-2019 11:10:00 9.8 C 7.24 g/m*3 7.94 C 12.9 km/h
136 28-04-2019 11:15:00 9.9 C 6.91 g/m*3 7.85 C 14.5 km/h
137 28-04-2019 11:20:00 10 C 7.05 g/m*3 8.42 C 11.3 km/h
138 28-04-2019 11:25:00 10.1 C 7.09 g/m*3 8.54 C 11.3 km/h
139 28-04-2019 11:30:00 10.2 C 7.04 g/m*3 8.43 C 12.9 km/h
140 28-04-2019 11:35:00 10.3 C 6.99 g/m*3 8.78 C 11.3 km/h
141 28-04-2019 11:40:00 10.2 C 6.85 g/m*3 9.22 C 8.1 km/h
142 28-04-2019 11:45:00 10.1 C 6.81 g/m*3 8.54 C 11.3 km/h
143 28-04-2019 11:50:00 10.1 C 6.71 g/m*3 8.54 C 11.3 km/h
144 28-04-2019 11:55:00 10.1 C 6.81 g/m*3 8.54 C 11.3 km/h
145 28-04-2019 12:00:00 10.2 C 6.85 g/m*3 8.43 C 12.9 km/h
146 28-04-2019 12:05:00 10.3 C 6.9 g/m*3 9.04 C 9.7 km/h
147 28-04-2019 12:10:00 10.3 C 6.8 g/m*3 8.78 C 11.3 km/h
148 28-04-2019 12:15:00 10.3 C 6.7 g/m*3 9.72 C 6.4 km/h
149 28-04-2019 12:20:00 10.3 C 6.8 g/m*3 9.72 C 6.4 km/h
150 28-04-2019 12:25:00 10.3 C 6.7 g/m*3 9.04 C 9.7 km/h
Sensor: Nr:Datum:Temp:Abs-Feuchte:Windchill:Wind:
Aussen-T/F 151 28-04-2019 12:30:00 10.2 C 6.66 g/m*3 9.6 C 6.4 km/h
152 28-04-2019 12:35:00 10.2 C 6.76 g/m*3 8.43 C 12.9 km/h
153 28-04-2019 12:40:00 10.2 C 6.66 g/m*3 8.66 C 11.3 km/h
154 28-04-2019 12:45:00 10.3 C 6.7 g/m*3 8.34 C 14.5 km/h
155 28-04-2019 12:50:00 10.6 C 6.73 g/m*3 10.06 C 6.4 km/h
156 28-04-2019 12:55:00 10.7 C 6.97 g/m*3 10.7 C 4.8 km/h
157 28-04-2019 13:00:00 10.9 C 6.86 g/m*3 9.76 C 9.7 km/h
158 28-04-2019 13:05:00 11 C 6.81 g/m*3 9.88 C 9.7 km/h
159 28-04-2019 13:10:00 11.1 C 6.85 g/m*3 11.1 C 8.1 km/h
160 28-04-2019 13:15:00 11.1 C 6.85 g/m*3 11.1 C 4.8 km/h
161 28-04-2019 13:20:00 11.2 C 6.99 g/m*3 11.2 C 6.4 km/h
162 28-04-2019 13:25:00 11.2 C 6.79 g/m*3 11.2 C 8.1 km/h
163 28-04-2019 13:30:00 11.2 C 6.59 g/m*3 11.2 C 8.1 km/h
164 28-04-2019 13:35:00 11.3 C 6.83 g/m*3 11.3 C 8.1 km/h
165 28-04-2019 13:40:00 11.4 C 6.77 g/m*3 11.4 C 11.3 km/h
166 28-04-2019 13:45:00 11.6 C 7.07 g/m*3 11.6 C 11.3 km/h
167 28-04-2019 13:50:00 11.7 C 6.59 g/m*3 11.7 C 8.1 km/h
168 28-04-2019 13:55:00 11.9 C 6.99 g/m*3 11.9 C 9.7 km/h
169 28-04-2019 14:00:00 12 C 7.03 g/m*3 12 C 9.7 km/h
170 28-04-2019 14:05:00 12.1 C 7.18 g/m*3 12.1 C 6.4 km/h
171 28-04-2019 14:10:00 12.1 C 7.29 g/m*3 12.1 C 9.7 km/h
172 28-04-2019 14:15:00 12.1 C 7.18 g/m*3 12.1 C 9.7 km/h
173 28-04-2019 14:20:00 12.1 C 7.29 g/m*3 12.1 C 8.1 km/h
174 28-04-2019 14:25:00 12.1 C 7.08 g/m*3 12.1 C 1.6 km/h
175 28-04-2019 14:30:00 12.3 C 7.28 g/m*3 12.3 C 4.8 km/h
Sensor: Nr:Datum:Temp:Abs-Feuchte:Windchill:Wind:
Aussen-T/F 176 28-04-2019 14:35:00 12.4 C 7.43 g/m*3 12.4 C 6.4 km/h
177 28-04-2019 14:40:00 12.6 C 7.3 g/m*3 12.6 C 8.1 km/h
178 28-04-2019 14:45:00 12.7 C 7.46 g/m*3 12.7 C 1.6 km/h
179 28-04-2019 14:50:00 12.8 C 7.28 g/m*3 12.8 C 8.1 km/h
180 28-04-2019 14:55:00 12.9 C 7.1 g/m*3 12.9 C 11.3 km/h
181 28-04-2019 15:00:00 12.8 C 7.28 g/m*3 12.8 C 8.1 km/h
182 28-04-2019 15:05:00 12.8 C 7.5 g/m*3 12.8 C 11.3 km/h
183 28-04-2019 15:10:00 12.6 C 7.19 g/m*3 12.6 C 6.4 km/h
184 28-04-2019 15:15:00 12.2 C 7.34 g/m*3 12.2 C 11.3 km/h
185 28-04-2019 15:20:00 11.8 C 7.58 g/m*3 11.8 C 8.1 km/h
186 28-04-2019 15:25:00 11.6 C 7.48 g/m*3 11.6 C 4.8 km/h
187 28-04-2019 15:30:00 11.3 C 7.65 g/m*3 11.3 C 4.8 km/h
188 28-04-2019 15:35:00 11 C 7.61 g/m*3 10.52 C 6.4 km/h
189 28-04-2019 15:40:00 10.7 C 7.66 g/m*3 10.7 C 4.8 km/h
190 28-04-2019 15:45:00 10.6 C 7.71 g/m*3 10.06 C 6.4 km/h
191 28-04-2019 15:50:00 10.4 C 7.81 g/m*3 10.4 C 3.2 km/h
192 28-04-2019 15:55:00 10.3 C 7.85 g/m*3 10.3 C 3.2 km/h
193 28-04-2019 16:00:00 10.2 C 7.99 g/m*3 10.2 C 4.8 km/h
194 28-04-2019 16:05:00 10.1 C 8.04 g/m*3 10.1 C 1.6 km/h
195 28-04-2019 16:10:00 10 C 7.99 g/m*3 10 C 4.8 km/h
196 28-04-2019 16:15:00 9.8 C 7.79 g/m*3 9.8 C 4.8 km/h
197 28-04-2019 16:20:00 9.9 C 7.94 g/m*3 9.9 C 3.2 km/h
198 28-04-2019 16:25:00 9.9 C 7.94 g/m*3 8.87 C 8.1 km/h
199 28-04-2019 16:30:00 10 C 7.99 g/m*3 10 C 1.6 km/h
200 28-04-2019 16:35:00 10.1 C 7.94 g/m*3 10.1 C 1.6 km/h
Sensor: Nr:Datum:Temp:Abs-Feuchte:Windchill:Wind:
Aussen-T/F 201 28-04-2019 16:40:00 10.3 C 8.14 g/m*3 10.3 C 3.2 km/h
202 28-04-2019 16:45:00 10.8 C 8.3 g/m*3 9.93 C 8.1 km/h
203 28-04-2019 16:50:00 11.6 C 8.52 g/m*3 11.6 C 9.7 km/h
204 28-04-2019 16:55:00 11.8 C 8.21 g/m*3 11.8 C 11.3 km/h
205 28-04-2019 17:00:00 11.5 C 7.95 g/m*3 11.5 C 12.9 km/h
206 28-04-2019 17:05:00 11.4 C 8.01 g/m*3 11.4 C 6.4 km/h
207 28-04-2019 17:10:00 11.4 C 8.01 g/m*3 11.4 C 3.2 km/h
208 28-04-2019 17:15:00 11.5 C 8.26 g/m*3 11.5 C 3.2 km/h
209 28-04-2019 17:20:00 11.5 C 8.16 g/m*3 11.5 C 0 km/h
210 28-04-2019 17:25:00 11.5 C 8.16 g/m*3 11.5 C 0 km/h
211 28-04-2019 17:30:00 11.5 C 8.16 g/m*3 11.5 C 0 km/h
212 28-04-2019 17:35:00 11.4 C 8.11 g/m*3 11.4 C 3.2 km/h
213 28-04-2019 17:40:00 11.4 C 8.11 g/m*3 11.4 C 0 km/h
214 28-04-2019 17:45:00 11.4 C 8.21 g/m*3 11.4 C 0 km/h
215 28-04-2019 17:50:00 11.4 C 8.21 g/m*3 11.4 C 1.6 km/h
216 28-04-2019 17:55:00 11.4 C 8.31 g/m*3 11.4 C 0 km/h
217 28-04-2019 18:00:00 11.5 C 8.47 g/m*3 11.5 C 0 km/h
218 28-04-2019 18:05:00 11.5 C 8.37 g/m*3 11.5 C 0 km/h
219 28-04-2019 18:10:00 11.4 C 7.8 g/m*3 11.4 C 0 km/h
220 28-04-2019 18:15:00 11.4 C 7.49 g/m*3 11.4 C 9.7 km/h
221 28-04-2019 18:20:00 11.6 C 7.9 g/m*3 11.6 C 3.2 km/h
222 28-04-2019 18:25:00 11.7 C 7.64 g/m*3 11.7 C 8.1 km/h
223 28-04-2019 18:30:00 11.7 C 7.64 g/m*3 11.7 C 8.1 km/h
224 28-04-2019 18:35:00 11.6 C 7.59 g/m*3 11.6 C 11.3 km/h
225 28-04-2019 18:40:00 11.5 C 7.44 g/m*3 11.5 C 9.7 km/h
Sensor: Nr:Datum:Temp:Abs-Feuchte:Windchill:Wind:
Aussen-T/F 226 28-04-2019 18:45:00 11.4 C 7.29 g/m*3 11.4 C 11.3 km/h
227 28-04-2019 18:50:00 11.3 C 7.45 g/m*3 11.3 C 11.3 km/h
228 28-04-2019 18:55:00 11.2 C 7.3 g/m*3 11.2 C 8.1 km/h
229 28-04-2019 19:00:00 11.1 C 7.45 g/m*3 11.1 C 8.1 km/h
230 28-04-2019 19:05:00 11.1 C 7.45 g/m*3 11.1 C 8.1 km/h
231 28-04-2019 19:10:00 10.9 C 7.36 g/m*3 10.41 C 6.4 km/h
232 28-04-2019 19:15:00 10.8 C 7.51 g/m*3 10.8 C 4.8 km/h
233 28-04-2019 19:20:00 10.7 C 7.46 g/m*3 9.81 C 8.1 km/h
234 28-04-2019 19:25:00 10.6 C 7.61 g/m*3 10.06 C 6.4 km/h
235 28-04-2019 19:30:00 10.6 C 7.52 g/m*3 10.06 C 6.4 km/h
236 28-04-2019 19:35:00 10.7 C 7.56 g/m*3 9.81 C 8.1 km/h
237 28-04-2019 19:40:00 10.8 C 7.71 g/m*3 10.29 C 6.4 km/h
238 28-04-2019 19:45:00 10.9 C 7.56 g/m*3 10.41 C 6.4 km/h
239 28-04-2019 19:50:00 11.1 C 7.66 g/m*3 11.1 C 6.4 km/h
240 28-04-2019 19:55:00 11.1 C 7.66 g/m*3 11.1 C 8.1 km/h
241 28-04-2019 20:00:00 10.8 C 7.51 g/m*3 9.64 C 9.7 km/h
242 28-04-2019 20:05:00 10.7 C 7.56 g/m*3 10.7 C 3.2 km/h
243 28-04-2019 20:10:00 10.4 C 7.52 g/m*3 10.4 C 4.8 km/h
244 28-04-2019 20:15:00 10.3 C 7.57 g/m*3 10.3 C 0 km/h
245 28-04-2019 20:20:00 10.1 C 7.56 g/m*3 10.1 C 0 km/h
246 28-04-2019 20:25:00 9.9 C 7.47 g/m*3 9.9 C 0 km/h
247 28-04-2019 20:30:00 9.6 C 7.42 g/m*3 9.6 C 0 km/h
248 28-04-2019 20:35:00 9.3 C 7.28 g/m*3 9.3 C 0 km/h
249 28-04-2019 20:40:00 9.1 C 7.28 g/m*3 9.1 C 0 km/h
250 28-04-2019 20:45:00 8.8 C 7.14 g/m*3 8.8 C 0 km/h
Sensor: Nr:Datum:Temp:Abs-Feuchte:Windchill:Wind:
Aussen-T/F 251 28-04-2019 20:50:00 8.5 C 7.09 g/m*3 8.5 C 0 km/h
252 28-04-2019 20:55:00 8.3 C 7.08 g/m*3 8.3 C 0 km/h
253 28-04-2019 21:00:00 8.1 C 6.99 g/m*3 8.1 C 0 km/h
254 28-04-2019 21:05:00 7.9 C 6.98 g/m*3 7.9 C 0 km/h
255 28-04-2019 21:10:00 7.7 C 6.97 g/m*3 7.7 C 0 km/h
256 28-04-2019 21:15:00 7.6 C 6.93 g/m*3 7.6 C 0 km/h
257 28-04-2019 21:20:00 7.4 C 6.92 g/m*3 7.4 C 0 km/h
258 28-04-2019 21:25:00 7.3 C 6.87 g/m*3 7.3 C 0 km/h
259 28-04-2019 21:30:00 7.2 C 6.83 g/m*3 7.2 C 0 km/h
260 28-04-2019 21:35:00 7.1 C 6.86 g/m*3 7.1 C 0 km/h
261 28-04-2019 21:40:00 7 C 6.82 g/m*3 7 C 0 km/h
262 28-04-2019 21:45:00 6.9 C 6.77 g/m*3 6.9 C 0 km/h
263 28-04-2019 21:50:00 6.8 C 6.73 g/m*3 6.8 C 0 km/h
264 28-04-2019 21:55:00 6.7 C 6.76 g/m*3 6.7 C 0 km/h
265 28-04-2019 22:00:00 6.6 C 6.72 g/m*3 6.6 C 0 km/h
266 28-04-2019 22:05:00 6.4 C 6.63 g/m*3 6.4 C 0 km/h
267 28-04-2019 22:10:00 6.3 C 6.59 g/m*3 6.3 C 0 km/h
268 28-04-2019 22:15:00 6.2 C 6.62 g/m*3 6.2 C 0 km/h
269 28-04-2019 22:20:00 6.1 C 6.58 g/m*3 6.1 C 0 km/h
270 28-04-2019 22:25:00 6 C 6.53 g/m*3 6 C 0 km/h
271 28-04-2019 22:30:00 5.9 C 6.56 g/m*3 5.9 C 0 km/h
272 28-04-2019 22:35:00 5.8 C 6.52 g/m*3 5.8 C 0 km/h
273 28-04-2019 22:40:00 5.7 C 6.48 g/m*3 5.7 C 0 km/h
274 28-04-2019 22:45:00 5.6 C 6.43 g/m*3 5.6 C 0 km/h
275 28-04-2019 22:50:00 5.6 C 6.5 g/m*3 5.6 C 0 km/h
Sensor: Nr:Datum:Temp:Abs-Feuchte:Windchill:Wind:
Aussen-T/F 276 28-04-2019 22:55:00 5.4 C 6.42 g/m*3 5.4 C 0 km/h
277 28-04-2019 23:00:00 5.3 C 6.31 g/m*3 5.3 C 0 km/h
278 28-04-2019 23:05:00 5.2 C 6.27 g/m*3 5.2 C 0 km/h
279 28-04-2019 23:10:00 5.2 C 6.33 g/m*3 5.2 C 0 km/h
280 28-04-2019 23:15:00 5.1 C 6.29 g/m*3 5.1 C 0 km/h
281 28-04-2019 23:20:00 5.1 C 6.29 g/m*3 5.1 C 0 km/h
282 28-04-2019 23:25:00 5 C 6.32 g/m*3 5 C 0 km/h
283 28-04-2019 23:30:00 4.9 C 6.21 g/m*3 4.9 C 0 km/h
284 28-04-2019 23:35:00 4.9 C 6.28 g/m*3 4.9 C 0 km/h
285 28-04-2019 23:40:00 4.9 C 6.28 g/m*3 4.9 C 0 km/h
286 28-04-2019 23:45:00 4.8 C 6.24 g/m*3 4.8 C 0 km/h
287 28-04-2019 23:50:00 4.8 C 6.24 g/m*3 4.8 C 0 km/h
288 28-04-2019 23:55:00 4.8 C 6.24 g/m*3 4.8 C 0 km/h
289 29-04-2019 00:00:00 4.7 C 6.19 g/m*3 4.7 C 0 km/h
290 29-04-2019 00:05:00 4.7 C 6.19 g/m*3 4.7 C 0 km/h
291 29-04-2019 00:10:00 4.7 C 6.26 g/m*3 4.7 C 0 km/h
292 29-04-2019 00:15:00 4.6 C 6.15 g/m*3 4.6 C 0 km/h
293 29-04-2019 00:20:00 4.5 C 6.11 g/m*3 4.5 C 0 km/h
294 29-04-2019 00:25:00 4.4 C 6.07 g/m*3 4.4 C 0 km/h
295 29-04-2019 00:30:00 4.3 C 6.1 g/m*3 4.3 C 0 km/h
296 29-04-2019 00:35:00 4.3 C 6.1 g/m*3 4.3 C 0 km/h
297 29-04-2019 00:40:00 4.2 C 6.06 g/m*3 4.2 C 0 km/h
298 29-04-2019 00:45:00 4.2 C 6.06 g/m*3 4.2 C 0 km/h
299 29-04-2019 00:50:00 4.2 C 6.06 g/m*3 4.2 C 0 km/h
300 29-04-2019 00:55:00 4.2 C 6.06 g/m*3 4.2 C 0 km/h
Sensor: Nr:Datum:Temp:Abs-Feuchte:Windchill:Wind:
Aussen-T/F 301 29-04-2019 01:00:00 4.3 C 6.1 g/m*3 4.3 C 0 km/h
302 29-04-2019 01:05:00 4.4 C 6.14 g/m*3 4.4 C 0 km/h
303 29-04-2019 01:10:00 4.3 C 6.1 g/m*3 4.3 C 0 km/h
304 29-04-2019 01:15:00 4.3 C 6.1 g/m*3 4.3 C 0 km/h
305 29-04-2019 01:20:00 4.3 C 6.1 g/m*3 4.3 C 0 km/h
306 29-04-2019 01:25:00 4.2 C 6.06 g/m*3 4.2 C 0 km/h
307 29-04-2019 01:30:00 4 C 5.98 g/m*3 4 C 0 km/h
308 29-04-2019 01:35:00 3.9 C 5.94 g/m*3 3.9 C 0 km/h
309 29-04-2019 01:40:00 3.8 C 5.9 g/m*3 3.8 C 0 km/h
310 29-04-2019 01:45:00 3.7 C 5.86 g/m*3 3.7 C 0 km/h
311 29-04-2019 01:50:00 3.6 C 5.82 g/m*3 3.6 C 0 km/h
312 29-04-2019 01:55:00 3.6 C 5.82 g/m*3 3.6 C 0 km/h
313 29-04-2019 02:00:00 3.7 C 5.92 g/m*3 3.7 C 0 km/h
314 29-04-2019 02:05:00 3.6 C 5.88 g/m*3 3.6 C 0 km/h
315 29-04-2019 02:10:00 3.6 C 5.88 g/m*3 3.6 C 0 km/h
316 29-04-2019 02:15:00 3.4 C 5.74 g/m*3 3.4 C 0 km/h
317 29-04-2019 02:20:00 3.3 C 5.7 g/m*3 3.3 C 0 km/h
318 29-04-2019 02:25:00 3.3 C 5.7 g/m*3 3.3 C 0 km/h
319 29-04-2019 02:30:00 3.3 C 5.76 g/m*3 3.3 C 0 km/h
320 29-04-2019 02:35:00 3.3 C 5.76 g/m*3 3.3 C 0 km/h
321 29-04-2019 02:40:00 3.3 C 5.76 g/m*3 3.3 C 0 km/h
322 29-04-2019 02:45:00 3.4 C 5.8 g/m*3 3.4 C 0 km/h
323 29-04-2019 02:50:00 3.4 C 5.8 g/m*3 3.4 C 0 km/h
324 29-04-2019 02:55:00 3.5 C 5.84 g/m*3 3.5 C 0 km/h
325 29-04-2019 03:00:00 3.5 C 5.84 g/m*3 3.5 C 0 km/h
Sensor: Nr:Datum:Temp:Abs-Feuchte:Windchill:Wind:
Aussen-T/F 326 29-04-2019 03:05:00 3.5 C 5.84 g/m*3 3.5 C 0 km/h
327 29-04-2019 03:10:00 3.6 C 5.88 g/m*3 3.6 C 0 km/h
328 29-04-2019 03:15:00 3.6 C 5.88 g/m*3 3.6 C 0 km/h
329 29-04-2019 03:20:00 3.7 C 5.92 g/m*3 3.7 C 0 km/h
330 29-04-2019 03:25:00 3.7 C 5.92 g/m*3 3.7 C 0 km/h
331 29-04-2019 03:30:00 3.7 C 5.92 g/m*3 3.7 C 0 km/h
332 29-04-2019 03:35:00 3.8 C 5.96 g/m*3 3.8 C 0 km/h
333 29-04-2019 03:40:00 3.8 C 5.96 g/m*3 3.8 C 0 km/h
334 29-04-2019 03:45:00 3.8 C 5.96 g/m*3 3.8 C 0 km/h
335 29-04-2019 03:50:00 3.7 C 5.92 g/m*3 3.7 C 0 km/h
336 29-04-2019 03:55:00 3.7 C 5.92 g/m*3 3.7 C 0 km/h
337 29-04-2019 04:00:00 3.7 C 5.92 g/m*3 3.7 C 0 km/h
338 29-04-2019 04:05:00 3.6 C 5.88 g/m*3 3.6 C 0 km/h
339 29-04-2019 04:10:00 3.6 C 5.88 g/m*3 3.6 C 0 km/h
340 29-04-2019 04:15:00 3.6 C 5.88 g/m*3 3.6 C 0 km/h
341 29-04-2019 04:20:00 3.6 C 5.88 g/m*3 3.6 C 0 km/h
342 29-04-2019 04:25:00 3.6 C 5.94 g/m*3 3.6 C 0 km/h
343 29-04-2019 04:30:00 3.6 C 5.94 g/m*3 3.6 C 0 km/h
344 29-04-2019 04:35:00 3.5 C 5.9 g/m*3 3.5 C 0 km/h
345 29-04-2019 04:40:00 3.4 C 5.86 g/m*3 3.4 C 0 km/h
346 29-04-2019 04:45:00 3.4 C 5.86 g/m*3 3.4 C 0 km/h
347 29-04-2019 04:50:00 3.4 C 5.86 g/m*3 3.4 C 0 km/h
348 29-04-2019 04:55:00 3.5 C 5.9 g/m*3 3.5 C 0 km/h
349 29-04-2019 05:00:00 3.5 C 5.9 g/m*3 3.5 C 4.8 km/h
350 29-04-2019 05:05:00 3.5 C 5.9 g/m*3 3.5 C 3.2 km/h
Sensor: Nr:Datum:Temp:Abs-Feuchte:Windchill:Wind:
Aussen-T/F 351 29-04-2019 05:10:00 3.4 C 5.86 g/m*3 3.4 C 3.2 km/h
352 29-04-2019 05:15:00 3.4 C 5.86 g/m*3 1.75 C 6.4 km/h
353 29-04-2019 05:20:00 3.4 C 5.86 g/m*3 1.75 C 6.4 km/h
354 29-04-2019 05:25:00 3.4 C 5.86 g/m*3 3.4 C 1.6 km/h
355 29-04-2019 05:30:00 3.3 C 5.82 g/m*3 1.63 C 6.4 km/h
356 29-04-2019 05:35:00 3.3 C 5.82 g/m*3 3.3 C 3.2 km/h
357 29-04-2019 05:40:00 3.3 C 5.82 g/m*3 1.63 C 6.4 km/h
358 29-04-2019 05:45:00 3.3 C 5.82 g/m*3 3.3 C 1.6 km/h
359 29-04-2019 05:50:00 3.3 C 5.82 g/m*3 3.3 C 4.8 km/h
360 29-04-2019 05:55:00 3.2 C 5.79 g/m*3 3.2 C 3.2 km/h
361 29-04-2019 06:00:00 3.2 C 5.79 g/m*3 3.2 C 3.2 km/h
362 29-04-2019 06:05:00 3.2 C 5.79 g/m*3 3.2 C 3.2 km/h
363 29-04-2019 06:10:00 3.2 C 5.79 g/m*3 3.2 C 0 km/h
364 29-04-2019 06:15:00 3.2 C 5.79 g/m*3 3.2 C 0 km/h
365 29-04-2019 06:20:00 3.2 C 5.79 g/m*3 3.2 C 0 km/h
366 29-04-2019 06:25:00 3.2 C 5.79 g/m*3 3.2 C 0 km/h
367 29-04-2019 06:30:00 3.1 C 5.75 g/m*3 3.1 C 0 km/h
368 29-04-2019 06:35:00 3.1 C 5.75 g/m*3 3.1 C 1.6 km/h
369 29-04-2019 06:40:00 3.1 C 5.75 g/m*3 3.1 C 1.6 km/h
370 29-04-2019 06:45:00 3.1 C 5.75 g/m*3 3.1 C 1.6 km/h
371 29-04-2019 06:50:00 3.1 C 5.75 g/m*3 3.1 C 3.2 km/h
372 29-04-2019 06:55:00 3.1 C 5.75 g/m*3 3.1 C 3.2 km/h
373 29-04-2019 07:00:00 3.1 C 5.75 g/m*3 3.1 C 3.2 km/h
374 29-04-2019 07:05:00 3.1 C 5.75 g/m*3 3.1 C 0 km/h
375 29-04-2019 07:10:00 3.1 C 5.75 g/m*3 3.1 C 0 km/h
Sensor: Nr:Datum:Temp:Abs-Feuchte:Windchill:Wind:
Aussen-T/F 376 29-04-2019 07:15:00 3.1 C 5.75 g/m*3 3.1 C 0 km/h
377 29-04-2019 07:20:00 3.2 C 5.79 g/m*3 3.2 C 1.6 km/h
378 29-04-2019 07:25:00 3.2 C 5.79 g/m*3 3.2 C 0 km/h
379 29-04-2019 07:30:00 3.2 C 5.79 g/m*3 3.2 C 1.6 km/h
380 29-04-2019 07:35:00 3.3 C 5.82 g/m*3 3.3 C 1.6 km/h
381 29-04-2019 07:40:00 3.3 C 5.82 g/m*3 3.3 C 3.2 km/h
382 29-04-2019 07:45:00 3.3 C 5.82 g/m*3 3.3 C 1.6 km/h
383 29-04-2019 07:50:00 3.4 C 5.86 g/m*3 3.4 C 4.8 km/h
384 29-04-2019 07:55:00 3.4 C 5.86 g/m*3 3.4 C 3.2 km/h
385 29-04-2019 08:00:00 3.5 C 5.9 g/m*3 3.5 C 4.8 km/h
386 29-04-2019 08:05:00 3.6 C 5.94 g/m*3 3.6 C 3.2 km/h
387 29-04-2019 08:10:00 3.6 C 5.94 g/m*3 3.6 C 3.2 km/h
388 29-04-2019 08:15:00 3.7 C 5.98 g/m*3 3.7 C 3.2 km/h
389 29-04-2019 08:20:00 3.7 C 5.98 g/m*3 3.7 C 4.8 km/h
390 29-04-2019 08:25:00 3.8 C 6.09 g/m*3 3.8 C 3.2 km/h
391 29-04-2019 08:30:00 3.9 C 6.13 g/m*3 3.9 C 4.8 km/h
392 29-04-2019 08:35:00 3.9 C 6.06 g/m*3 3.9 C 3.2 km/h
393 29-04-2019 08:40:00 4 C 6.1 g/m*3 2.44 C 6.4 km/h
394 29-04-2019 08:45:00 4.1 C 6.21 g/m*3 2.55 C 6.4 km/h
395 29-04-2019 08:50:00 4.2 C 6.25 g/m*3 4.2 C 4.8 km/h
396 29-04-2019 08:55:00 4.3 C 6.29 g/m*3 4.3 C 3.2 km/h
397 29-04-2019 09:00:00 4.4 C 6.33 g/m*3 4.4 C 4.8 km/h
398 29-04-2019 09:05:00 4.5 C 6.38 g/m*3 3.02 C 6.4 km/h
399 29-04-2019 09:10:00 4.6 C 6.42 g/m*3 3.13 C 6.4 km/h
400 29-04-2019 09:15:00 4.7 C 6.46 g/m*3 3.25 C 6.4 km/h
Sensor: Nr:Datum:Temp:Abs-Feuchte:Windchill:Wind:
Aussen-T/F 401 29-04-2019 09:20:00 4.8 C 6.5 g/m*3 4.8 C 4.8 km/h
402 29-04-2019 09:25:00 5 C 6.59 g/m*3 5 C 3.2 km/h
403 29-04-2019 09:30:00 5.1 C 6.63 g/m*3 5.1 C 4.8 km/h
404 29-04-2019 09:35:00 5.2 C 6.68 g/m*3 5.2 C 4.8 km/h
405 29-04-2019 09:40:00 5.3 C 6.72 g/m*3 5.3 C 1.6 km/h
406 29-04-2019 09:45:00 5.4 C 6.77 g/m*3 5.4 C 3.2 km/h
407 29-04-2019 09:50:00 5.5 C 6.81 g/m*3 5.5 C 1.6 km/h
408 29-04-2019 09:55:00 5.4 C 6.77 g/m*3 5.4 C 1.6 km/h
409 29-04-2019 10:00:00 5.7 C 6.83 g/m*3 5.7 C 3.2 km/h
410 29-04-2019 10:05:00 5.8 C 6.88 g/m*3 5.8 C 3.2 km/h
411 29-04-2019 10:10:00 5.9 C 6.92 g/m*3 5.9 C 3.2 km/h
412 29-04-2019 10:15:00 6.2 C 7.06 g/m*3 4.98 C 6.4 km/h
413 29-04-2019 10:20:00 6.3 C 7.11 g/m*3 6.3 C 3.2 km/h
414 29-04-2019 10:25:00 6.5 C 7.2 g/m*3 6.5 C 1.6 km/h
415 29-04-2019 10:30:00 6.6 C 7.17 g/m*3 6.6 C 0 km/h
416 29-04-2019 10:35:00 6.8 C 7.27 g/m*3 6.8 C 0 km/h
417 29-04-2019 10:40:00 6.9 C 7.31 g/m*3 6.9 C 3.2 km/h
418 29-04-2019 10:45:00 7.1 C 7.33 g/m*3 7.1 C 1.6 km/h
419 29-04-2019 10:50:00 7.2 C 7.38 g/m*3 7.2 C 3.2 km/h
420 29-04-2019 10:55:00 7.2 C 7.3 g/m*3 7.2 C 0 km/h
421 29-04-2019 11:00:00 7.4 C 7.4 g/m*3 7.4 C 0 km/h
422 29-04-2019 11:05:00 7.6 C 7.49 g/m*3 7.6 C 3.2 km/h
423 29-04-2019 11:10:00 7.8 C 7.59 g/m*3 7.8 C 3.2 km/h
424 29-04-2019 11:15:00 8 C 7.61 g/m*3 8 C 3.2 km/h
425 29-04-2019 11:20:00 8.2 C 7.7 g/m*3 8.2 C 0 km/h
Sensor: Nr:Datum:Temp:Abs-Feuchte:Windchill:Wind:
Aussen-T/F 426 29-04-2019 11:25:00 8.4 C 7.8 g/m*3 8.4 C 3.2 km/h
427 29-04-2019 11:30:00 8.8 C 8.01 g/m*3 8.8 C 3.2 km/h
428 29-04-2019 11:35:00 9.1 C 8.07 g/m*3 9.1 C 0 km/h
429 29-04-2019 11:40:00 9.4 C 8.14 g/m*3 9.4 C 4.8 km/h
430 29-04-2019 11:45:00 9.7 C 8.11 g/m*3 9.7 C 4.8 km/h
431 29-04-2019 11:50:00 9.9 C 8.12 g/m*3 9.9 C 1.6 km/h
432 29-04-2019 11:55:00 10.1 C 8.13 g/m*3 10.1 C 1.6 km/h
433 29-04-2019 12:00:00 10.4 C 8.19 g/m*3 10.4 C 1.6 km/h
434 29-04-2019 12:05:00 10.7 C 8.25 g/m*3 10.7 C 3.2 km/h
435 29-04-2019 12:10:00 11.1 C 8.36 g/m*3 11.1 C 4.8 km/h
436 29-04-2019 12:15:00 11.3 C 8.16 g/m*3 11.3 C 8.1 km/h
437 29-04-2019 12:20:00 11.5 C 8.06 g/m*3 11.5 C 3.2 km/h
438 29-04-2019 12:25:00 11.8 C 8.31 g/m*3 11.8 C 1.6 km/h
439 29-04-2019 12:30:00 12.1 C 8.04 g/m*3 12.1 C 6.4 km/h
440 29-04-2019 12:35:00 12.3 C 8.25 g/m*3 12.3 C 4.8 km/h
441 29-04-2019 12:40:00 12.6 C 7.97 g/m*3 12.6 C 6.4 km/h
442 29-04-2019 12:45:00 12.8 C 8.18 g/m*3 12.8 C 4.8 km/h
443 29-04-2019 12:50:00 13.2 C 8.15 g/m*3 13.2 C 6.4 km/h
444 29-04-2019 12:55:00 13.3 C 7.97 g/m*3 13.3 C 14.5 km/h
445 29-04-2019 13:00:00 13.5 C 7.84 g/m*3 13.5 C 14.5 km/h
446 29-04-2019 13:05:00 13.7 C 7.7 g/m*3 13.7 C 8.1 km/h
447 29-04-2019 13:10:00 13.8 C 7.51 g/m*3 13.8 C 8.1 km/h
448 29-04-2019 13:15:00 13.9 C 7.55 g/m*3 13.9 C 8.1 km/h
449 29-04-2019 13:20:00 14 C 7.72 g/m*3 14 C 9.7 km/h
450 29-04-2019 13:25:00 14 C 7.72 g/m*3 14 C 9.7 km/h
Sensor: Nr:Datum:Temp:Abs-Feuchte:Windchill:Wind:
Aussen-T/F 451 29-04-2019 13:30:00 14 C 7.72 g/m*3 14 C 8.1 km/h
452 29-04-2019 13:35:00 14 C 7.72 g/m*3 14 C 6.4 km/h
453 29-04-2019 13:40:00 14 C 7.48 g/m*3 14 C 9.7 km/h
454 29-04-2019 13:45:00 14.2 C 7.69 g/m*3 14.2 C 8.1 km/h
455 29-04-2019 13:50:00 14.3 C 7.49 g/m*3 14.3 C 9.7 km/h
456 29-04-2019 13:55:00 14.3 C 7.37 g/m*3 14.3 C 8.1 km/h
457 29-04-2019 14:00:00 14.3 C 7.25 g/m*3 14.3 C 9.7 km/h
458 29-04-2019 14:05:00 14.4 C 7.42 g/m*3 14.4 C 6.4 km/h
459 29-04-2019 14:10:00 14.4 C 7.42 g/m*3 14.4 C 9.7 km/h
460 29-04-2019 14:15:00 14.7 C 7.18 g/m*3 14.7 C 11.3 km/h
461 29-04-2019 14:20:00 14.7 C 7.05 g/m*3 14.7 C 8.1 km/h
462 29-04-2019 14:25:00 14.8 C 7.47 g/m*3 14.8 C 11.3 km/h
463 29-04-2019 14:30:00 14.8 C 7.22 g/m*3 14.8 C 12.9 km/h
464 29-04-2019 14:35:00 14.9 C 7.14 g/m*3 14.9 C 8.1 km/h
465 29-04-2019 14:40:00 15.2 C 7.27 g/m*3 15.2 C 11.3 km/h
466 29-04-2019 14:45:00 15.3 C 7.18 g/m*3 15.3 C 9.7 km/h
467 29-04-2019 14:50:00 15.3 C 7.18 g/m*3 15.3 C 9.7 km/h
468 29-04-2019 14:55:00 15.2 C 7.14 g/m*3 15.2 C 8.1 km/h
469 29-04-2019 15:00:00 15.2 C 7.27 g/m*3 15.2 C 8.1 km/h
470 29-04-2019 15:05:00 15.3 C 7.44 g/m*3 15.3 C 11.3 km/h
471 29-04-2019 15:10:00 15.3 C 7.18 g/m*3 15.3 C 12.9 km/h
472 29-04-2019 15:15:00 15.3 C 7.44 g/m*3 15.3 C 8.1 km/h
473 29-04-2019 15:20:00 15.2 C 7.4 g/m*3 15.2 C 12.9 km/h
474 29-04-2019 15:25:00 15.3 C 7.44 g/m*3 15.3 C 11.3 km/h
475 29-04-2019 15:30:00 15.3 C 7.18 g/m*3 15.3 C 9.7 km/h
Sensor: Nr:Datum:Temp:Abs-Feuchte:Windchill:Wind:
Aussen-T/F 476 29-04-2019 15:35:00 15.3 C 7.31 g/m*3 15.3 C 6.4 km/h
477 29-04-2019 15:40:00 15.2 C 7.27 g/m*3 15.2 C 8.1 km/h
478 29-04-2019 15:45:00 15.3 C 7.57 g/m*3 15.3 C 6.4 km/h
479 29-04-2019 15:50:00 15.4 C 7.36 g/m*3 15.4 C 11.3 km/h
480 29-04-2019 15:55:00 15.4 C 7.36 g/m*3 15.4 C 9.7 km/h
481 29-04-2019 16:00:00 15.3 C 7.05 g/m*3 15.3 C 16.1 km/h
482 29-04-2019 16:05:00 15.3 C 7.05 g/m*3 15.3 C 16.1 km/h
483 29-04-2019 16:10:00 15.3 C 7.18 g/m*3 15.3 C 8.1 km/h
484 29-04-2019 16:15:00 15.3 C 7.18 g/m*3 15.3 C 9.7 km/h
485 29-04-2019 16:20:00 15.3 C 7.31 g/m*3 15.3 C 12.9 km/h
486 29-04-2019 16:25:00 15.3 C 7.18 g/m*3 15.3 C 9.7 km/h
487 29-04-2019 16:30:00 15.3 C 7.18 g/m*3 15.3 C 14.5 km/h
488 29-04-2019 16:35:00 15.3 C 7.05 g/m*3 15.3 C 8.1 km/h
489 29-04-2019 16:40:00 15.3 C 7.18 g/m*3 15.3 C 9.7 km/h
490 29-04-2019 16:45:00 15.3 C 7.57 g/m*3 15.3 C 12.9 km/h
491 29-04-2019 16:50:00 15.4 C 7.36 g/m*3 15.4 C 8.1 km/h
492 29-04-2019 16:55:00 15.4 C 7.49 g/m*3 15.4 C 11.3 km/h
493 29-04-2019 17:00:00 15.4 C 7.36 g/m*3 15.4 C 12.9 km/h
494 29-04-2019 17:05:00 15.4 C 7.49 g/m*3 15.4 C 8.1 km/h
495 29-04-2019 17:10:00 15.4 C 7.36 g/m*3 15.4 C 8.1 km/h
496 29-04-2019 17:15:00 15.4 C 7.23 g/m*3 15.4 C 11.3 km/h
497 29-04-2019 17:20:00 15.4 C 7.09 g/m*3 15.4 C 11.3 km/h
498 29-04-2019 17:25:00 15.4 C 7.23 g/m*3 15.4 C 14.5 km/h
499 29-04-2019 17:30:00 15.3 C 7.44 g/m*3 15.3 C 9.7 km/h
500 29-04-2019 17:35:00 15.3 C 7.31 g/m*3 15.3 C 12.9 km/h
Sensor: Nr:Datum:Temp:Abs-Feuchte:Windchill:Wind:
Aussen-T/F 501 29-04-2019 17:40:00 15.3 C 7.31 g/m*3 15.3 C 11.3 km/h
502 29-04-2019 17:45:00 15.2 C 7.27 g/m*3 15.2 C 14.5 km/h
503 29-04-2019 17:50:00 15.2 C 7.14 g/m*3 15.2 C 11.3 km/h
504 29-04-2019 17:55:00 15.1 C 7.22 g/m*3 15.1 C 14.5 km/h
505 29-04-2019 18:00:00 14.9 C 7.26 g/m*3 14.9 C 11.3 km/h
506 29-04-2019 18:05:00 14.7 C 7.3 g/m*3 14.7 C 11.3 km/h
507 29-04-2019 18:10:00 14.4 C 7.42 g/m*3 14.4 C 8.1 km/h
508 29-04-2019 18:15:00 14.2 C 7.69 g/m*3 14.2 C 3.2 km/h
509 29-04-2019 18:20:00 13.9 C 7.55 g/m*3 13.9 C 8.1 km/h
510 29-04-2019 18:25:00 13.7 C 7.7 g/m*3 13.7 C 11.3 km/h
511 29-04-2019 18:30:00 13.6 C 8.12 g/m*3 13.6 C 9.7 km/h
512 29-04-2019 18:35:00 13.4 C 8.37 g/m*3 13.4 C 9.7 km/h
513 29-04-2019 18:40:00 13.3 C 8.9 g/m*3 13.3 C 0 km/h
514 29-04-2019 18:45:00 13.1 C 8.79 g/m*3 13.1 C 11.3 km/h
515 29-04-2019 18:50:00 12.7 C 8.91 g/m*3 12.7 C 3.2 km/h
516 29-04-2019 18:55:00 12.4 C 9.07 g/m*3 12.4 C 0 km/h
517 29-04-2019 19:00:00 12.2 C 9.06 g/m*3 12.2 C 0 km/h
518 29-04-2019 19:05:00 11.9 C 9.11 g/m*3 11.9 C 0 km/h
519 29-04-2019 19:10:00 11.7 C 8.99 g/m*3 11.7 C 0 km/h
520 29-04-2019 19:15:00 11.4 C 8.93 g/m*3 11.4 C 0 km/h
521 29-04-2019 19:20:00 11.2 C 8.92 g/m*3 11.2 C 4.8 km/h
522 29-04-2019 19:25:00 11 C 8.81 g/m*3 11 C 3.2 km/h
523 29-04-2019 19:30:00 10.9 C 8.85 g/m*3 10.9 C 0 km/h
524 29-04-2019 19:35:00 10.7 C 8.74 g/m*3 10.7 C 1.6 km/h
525 29-04-2019 19:40:00 10.6 C 8.78 g/m*3 10.6 C 1.6 km/h
Sensor: Nr:Datum:Temp:Abs-Feuchte:Windchill:Wind:
Aussen-T/F 526 29-04-2019 19:45:00 10.5 C 8.73 g/m*3 10.5 C 1.6 km/h
527 29-04-2019 19:50:00 10.4 C 8.67 g/m*3 10.4 C 1.6 km/h
528 29-04-2019 19:55:00 10.4 C 8.67 g/m*3 10.4 C 0 km/h
529 29-04-2019 20:00:00 10.3 C 8.71 g/m*3 10.3 C 0 km/h
530 29-04-2019 20:05:00 10.3 C 8.71 g/m*3 10.3 C 0 km/h
531 29-04-2019 20:10:00 10.3 C 8.71 g/m*3 10.3 C 0 km/h
532 29-04-2019 20:15:00 10.3 C 8.71 g/m*3 10.3 C 0 km/h
533 29-04-2019 20:20:00 10.2 C 8.66 g/m*3 10.2 C 0 km/h
534 29-04-2019 20:25:00 10.3 C 8.81 g/m*3 10.3 C 0 km/h
535 29-04-2019 20:30:00 10.3 C 8.81 g/m*3 10.3 C 0 km/h
536 29-04-2019 20:35:00 10.2 C 8.76 g/m*3 10.2 C 0 km/h
537 29-04-2019 20:40:00 10.2 C 8.76 g/m*3 10.2 C 0 km/h
538 29-04-2019 20:45:00 10.2 C 8.76 g/m*3 10.2 C 0 km/h
539 29-04-2019 20:50:00 10.2 C 8.76 g/m*3 10.2 C 0 km/h
540 29-04-2019 20:55:00 10.2 C 8.76 g/m*3 10.2 C 0 km/h
541 29-04-2019 21:00:00 10.2 C 8.76 g/m*3 10.2 C 0 km/h
542 29-04-2019 21:05:00 10.1 C 8.79 g/m*3 10.1 C 0 km/h
543 29-04-2019 21:10:00 10.1 C 8.79 g/m*3 10.1 C 0 km/h
544 29-04-2019 21:15:00 10.1 C 8.79 g/m*3 10.1 C 0 km/h
545 29-04-2019 21:20:00 10.1 C 8.79 g/m*3 10.1 C 1.6 km/h
546 29-04-2019 21:25:00 10.1 C 8.7 g/m*3 10.1 C 0 km/h
547 29-04-2019 21:30:00 10.1 C 8.7 g/m*3 10.1 C 0 km/h
548 29-04-2019 21:35:00 10.1 C 8.7 g/m*3 10.1 C 0 km/h
549 29-04-2019 21:40:00 10.1 C 8.7 g/m*3 10.1 C 1.6 km/h
550 29-04-2019 21:45:00 10.2 C 8.76 g/m*3 10.2 C 0 km/h
Sensor: Nr:Datum:Temp:Abs-Feuchte:Windchill:Wind:
Aussen-T/F 551 29-04-2019 21:50:00 10.2 C 8.76 g/m*3 10.2 C 0 km/h
552 29-04-2019 21:55:00 10.2 C 8.76 g/m*3 10.2 C 1.6 km/h
553 29-04-2019 22:00:00 10.2 C 8.76 g/m*3 10.2 C 0 km/h
554 29-04-2019 22:05:00 10.2 C 8.76 g/m*3 10.2 C 4.8 km/h
555 29-04-2019 22:10:00 10.2 C 8.76 g/m*3 10.2 C 0 km/h
556 29-04-2019 22:15:00 10.3 C 8.81 g/m*3 10.3 C 0 km/h
557 29-04-2019 22:20:00 10.3 C 8.81 g/m*3 10.3 C 4.8 km/h
558 29-04-2019 22:25:00 10.2 C 8.76 g/m*3 10.2 C 1.6 km/h
559 29-04-2019 22:30:00 10.2 C 8.76 g/m*3 10.2 C 0 km/h
560 29-04-2019 22:35:00 10.3 C 8.81 g/m*3 10.3 C 1.6 km/h
561 29-04-2019 22:40:00 10.3 C 8.81 g/m*3 10.3 C 3.2 km/h
562 29-04-2019 22:45:00 10.3 C 8.71 g/m*3 8.78 C 11.3 km/h
563 29-04-2019 22:50:00 10.3 C 8.71 g/m*3 10.3 C 3.2 km/h
564 29-04-2019 22:55:00 10.3 C 8.71 g/m*3 10.3 C 1.6 km/h
565 29-04-2019 23:00:00 10.4 C 8.67 g/m*3 10.4 C 3.2 km/h
566 29-04-2019 23:05:00 10.5 C 8.73 g/m*3 10.5 C 0 km/h
567 29-04-2019 23:10:00 10.6 C 8.78 g/m*3 10.6 C 4.8 km/h
568 29-04-2019 23:15:00 10.6 C 8.69 g/m*3 10.6 C 1.6 km/h
569 29-04-2019 23:20:00 10.7 C 8.84 g/m*3 10.7 C 0 km/h
570 29-04-2019 23:25:00 10.7 C 8.74 g/m*3 10.7 C 3.2 km/h
571 29-04-2019 23:30:00 10.7 C 8.74 g/m*3 10.7 C 3.2 km/h
572 29-04-2019 23:35:00 10.7 C 8.74 g/m*3 10.7 C 0 km/h
573 29-04-2019 23:40:00 10.8 C 8.9 g/m*3 10.8 C 0 km/h
574 29-04-2019 23:45:00 10.8 C 8.9 g/m*3 10.8 C 0 km/h
575 29-04-2019 23:50:00 10.7 C 8.84 g/m*3 10.7 C 0 km/h
Sensor: Nr:Datum:Temp:Abs-Feuchte:Windchill:Wind:
Aussen-T/F 576 29-04-2019 23:55:00 10.7 C 8.74 g/m*3 10.7 C 4.8 km/h

Legende:
   Min
   Max


Maximal/Minimal-Werte vom 28.04.2019 - 29.04.2019

Sensor Min Max Avg
Temp
(Aussen-T/F)
3.1 °C
29-04-2019  06:30:00
15.4 °C
29-04-2019  15:50:00
8.53 °C
Abs-Feuchte
(Aussen-T/F)
5.7 g/m*3
29-04-2019  02:20:00
9.11 g/m*3
29-04-2019  19:05:00
7.09 g/m*3
Windchill
(Aussen-T/F)
1.63 C
29-04-2019  05:30:00
15.4 C
29-04-2019  15:50:00
8.17 C

Die Daten stammen von einer Davis Vantage Pro 2 Wetter-Station und werden unter Linux mit der Software wview2wettercgi und aufbereitet. Alle Angaben erfolgen ohne Gewähr für ihre Vollständigkeit oder Richtigkeit.
Kontakt: Rainer Krienke krienke@uni-koblenz.de . Meine Webseiten an der Uni Koblenz oder privat.
Version: $Revision: 0.78 $